User: anonymous   Login
Location: Bogis-Bossey
(46.3500°N, 6.1667°E)
Time: 07:33:50
(UTC+00:00)
Language:

Cosmos 1536 - Orbit

View from above orbital plane
View from above orbital plane
View from above satellite
View from above satellite

Ground track
Ground track

The orbit data is extracted from the following two-line orbital elements,

1 14699U 84013A   22339.87873464  .00002567  00000-0  16809-3 0  9998
2 14699  82.5255 193.6179 0013392  71.1200 289.1478 15.07257752 92543
Epoch (UTC): 05 December 2022 21:05:22
Eccentricity: 0.0013392
inclination: 82.5255°
perigee height: 535 km
apogee height: 554 km
right ascension of ascending node: 193.6179°
argument of perigee: 71.1200°
revolutions per day: 15.07257752
mean anomaly at epoch: 289.1478°
orbit number at epoch: 9254

The dashed part of the orbit path shows where the satellite is in the earth's shadow,  

DLR